Terminal Aerodrome Forecast
Issued by NWS

Home | Current Version | Previous Version | Text Only | Print | Product List | Glossary On
Versions: 1 2 3 4 5 6 7 8 9 10 11 12 13 14 15 16 17 18 19 20 21 22 23 24 25 26 27 28 29 30 31 32 33 34 35 36
000
FTUS45 KBOU 270407 AAB
TAFAPA
TAF AMD
KAPA 270407Z 2704/2724 01015G25KT P6SM SCT025 BKN040
     FM270600 02011KT P6SM BKN025 OVC040
     FM271000 04007KT P6SM VCFG SCT010 BKN020
     FM271600 02010KT P6SM SCT025 BKN045
     FM271900 02012KT P6SM BKN030 OVC060
      TEMPO 2720/2724 -SHRA BKN020=

USA.gov is the U.S. government's official web portal to all federal, state and local government web resources and services.